DL9SEC-13 Weather Reports


Display with metric or nautical units.
time (UTC)temp
F
wind
direction
speed
MPH
gust
MPH
rain 1hr
in
rain 24hr
in
rain mn
in
humidity
%
barometer
mb
20260506232503 50 270 0.0 0.0 0.00 0.31 0.00 92 1013.6
20260506231002 50 270 1.0 1.0 0.00 0.31 0.00 92 1013.5
20260506225503 50 270 0.0 0.0 0.00 0.31 0.00 90 1013.5
20260506224002 51 270 0.0 0.0 0.00 0.31 0.00 91 1013.3
20260506222502 51 270 0.0 0.0 0.00 0.31 0.00 90 1013.1
20260506221002 51 270 0.0 0.0 0.00 0.31 0.00 94 1013.0
20260506215504 51 270 0.0 0.0 0.00 0.31 0.31 93 1013.0
20260506214002 51 270 0.0 0.0 0.00 0.31 0.31 92 1013.0
20260506212502 51 270 0.0 0.0 0.00 0.31 0.31 95 1012.7
20260506211002 51 270 0.0 0.0 0.00 0.31 0.31 95 1012.7
20260506205502 51 270 0.0 0.0 0.00 0.31 0.31 95 1012.6
20260506204002 51 270 0.0 0.0 0.00 0.31 0.31 95 1012.7
20260506202503 51 270 0.0 0.0 0.00 0.31 0.31 95 1012.7
20260506201003 51 270 0.0 0.0 0.00 0.31 0.31 95 1012.5
20260506195503 51 270 0.0 0.0 0.01 0.31 0.31 95 1012.3
20260506194003 51 270 0.0 0.0 0.01 0.31 0.31 95 1012.3
20260506192503 51 270 0.0 0.0 0.01 0.31 0.31 94 1012.0
20260506191003 51 270 0.0 0.0 0.00 0.29 0.29 94 1011.8
20260506185504 51 270 0.0 0.0 0.03 0.29 0.29 93 1011.6
20260506184003 52 270 0.0 0.0 0.07 0.29 0.29 92 1011.5
20260506182504 52 270 0.0 0.0 0.15 0.29 0.29 91 1011.2
20260506181003 52 292 3.0 3.0 0.14 0.29 0.28 91 1011.3
20260506175502 52 292 2.0 2.0 0.15 0.29 0.26 94 1011.2
20260506174004 52 112 0.0 0.0 0.11 0.23 0.22 93 1010.9
20260506172502 53 112 0.0 0.0 0.06 0.17 0.15 93 1010.9
20260506171003 53 112 0.0 0.0 0.03 0.14 0.11 92 1010.7
20260506165502 53 112 0.0 0.0 0.03 0.14 0.11 91 1010.7
20260506164002 53 112 3.0 3.0 0.00 0.11 0.07 90 1010.8
20260506162502 54 292 2.0 2.0 0.00 0.11 0.07 90 1010.4
20260506161003 54 248 2.0 2.0 0.00 0.11 0.07 90 1010.3
20260506155503 55 270 4.0 5.0 0.00 0.11 0.07 90 1010.2
20260506154002 55 338 6.0 6.0 0.00 0.11 0.07 91 1009.9
20260506152503 56 292 7.0 8.0 0.01 0.11 0.07 92 1009.6
20260506151002 55 248 0.0 0.0 0.07 0.11 0.07 92 1009.7
20260506145505 54 90 0.0 0.0 0.07 0.11 0.07 91 1009.7
20260506144002 54 315 0.0 0.0 0.06 0.09 0.07 91 1009.5
20260506142502 60 248 11.0 13.0 0.00 0.03 0.00 78 1009.5
20260506141003 63 248 2.0 2.0 0.00 0.03 0.00 71 1008.8
20260506135503 64 248 2.0 2.0 0.00 0.03 0.00 68 1008.9
20260506134003 66 270 1.0 1.0 0.00 0.04 0.00 64 1008.7
20260506132503 67 270 0.0 0.0 0.00 0.04 0.00 63 1008.6
20260506131003 65 270 1.0 1.0 0.00 0.07 0.00 65 1008.7
20260506125503 63 270 1.0 1.0 0.00 0.07 0.00 69 1008.8
20260506124003 64 270 0.0 0.0 0.00 0.17 0.00 67 1008.9
20260506122502 64 270 0.0 0.0 0.00 0.20 0.00 68 1009.0
20260506121002 64 270 1.0 1.0 0.00 0.20 0.00 71 1008.9
20260506115502 63 270 3.0 3.0 0.00 0.20 0.00 68 1009.0
20260506114002 64 292 0.0 0.0 0.00 0.20 0.00 67 1009.0
20260506112502 66 315 1.0 1.0 0.00 0.20 0.00 64 1009.0
20260506111003 65 292 0.0 0.0 0.00 0.20 0.00 63 1009.3
20260506105503 64 292 0.0 0.0 0.00 0.20 0.00 61 1009.5
20260506104003 64 292 2.0 2.0 0.00 0.20 0.00 63 1009.7
20260506102503 64 248 0.0 0.0 0.00 0.20 0.00 62 1009.9
20260506101003 64 292 0.0 0.0 0.00 0.20 0.00 61 1009.8
20260506095502 64 292 3.0 3.0 0.00 0.20 0.00 63 1009.8
20260506094003 65 270 0.0 0.0 0.00 0.20 0.00 65 1009.9
20260506092503 64 270 1.0 1.0 0.00 0.20 0.00 64 1009.7
20260506091003 64 270 5.0 5.0 0.00 0.20 0.00 64 1009.7
20260506085503 65 68 0.0 0.0 0.00 0.20 0.00 66 1009.8
20260506084003 62 292 2.0 2.0 0.00 0.20 0.00 66 1009.8
20260506082502 62 22 0.0 0.0 0.00 0.20 0.00 70 1009.9
20260506081002 60 22 0.0 0.0 0.00 0.20 0.00 77 1009.9
20260506072502 59 68 0.0 0.0 0.00 0.20 0.00 77 1010.0
20260506071002 58 90 2.0 2.0 0.00 0.20 0.00 76 1010.0
20260506062502 52 68 2.0 2.0 0.00 0.20 0.00 89 1009.9
20260506061003 52 68 2.0 2.0 0.00 0.20 0.00 89 1010.0
20260506051003 50 158 5.0 5.0 0.00 0.20 0.00 90 1010.2
20260506044003 49 90 0.0 0.0 0.00 0.20 0.00 92 1010.3
20260506042503 49 68 2.0 2.0 0.00 0.20 0.00 93 1010.4
20260506041003 50 68 1.0 1.0 0.00 0.20 0.00 92 1010.5
20260506035503 49 68 1.0 1.0 0.00 0.20 0.00 92 1010.6
20260506034003 49 112 1.0 1.0 0.00 0.20 0.00 93 1010.8
20260506032503 49 90 0.0 0.0 0.00 0.20 0.00 93 1010.8
20260506031002 49 68 3.0 3.0 0.00 0.20 0.00 94 1010.8
20260506025502 49 68 0.0 0.0 0.00 0.20 0.00 94 1010.8
20260506024002 49 68 3.0 3.0 0.00 0.20 0.00 95 1010.8
20260506022502 48 90 0.0 0.0 0.00 0.20 0.00 95 1010.7
20260506021002 49 90 0.0 0.0 0.00 0.20 0.00 95 1011.0
20260506015502 49 90 0.0 0.0 0.00 0.20 0.00 95 1011.1
20260506014002 49 68 0.0 0.0 0.00 0.20 0.00 95 1011.3
20260506012502 49 68 2.0 2.0 0.00 0.20 0.00 96 1011.2
20260506011003 49 68 1.0 1.0 0.00 0.20 0.00 95 1011.0
20260506005503 49 68 1.0 1.0 0.00 0.20 0.00 95 1011.0
20260506004003 49 68 0.0 0.0 0.00 0.20 0.00 95 1011.1
20260506002503 50 68 0.0 0.0 0.00 0.20 0.00 95 1011.5
20260506001003 50 68 3.0 3.0 0.00 0.20 0.00 95 1011.6
20260505235502 51 68 3.0 3.0 0.00 0.20 0.00 95 1011.7
20260505234002 51 68 3.0 4.0 0.00 0.20 0.00 94 1011.7